SCP
0 0 0 0 0 0 0 0 0 0 0 0 0 0 0 0 0 0 0 0 0 0 0 0 0 0 0 0 0 0 0 0 0 0 0 0 0 0 0 0 0 0 0 0
0 0 0 0 0 0 0 0 0 0 0 0 0 0 0 0 0 0 0 0 0 0 0 0 0 0 0 0 0 0 0 0 0 0 0 0 0 0 0 0 0 0 0 0
0 0 0 0 0 0 0 0 0 0 0 0 0 0 0 0 0 0 0 0 0 0 0 0 0 0 0 0 0 0 0 0 0 0 0 0 0 0 0 0 0 0 0 0
0 0 0 0 0 0 0 0 0 0 0 0 0 0 0 0 0 0 0 0 0 0 0 0 0 0 0 0 0 0 0 0 0 0 0 0 0 0 0 0 0 0 0 0
0 0 0 0 0 0 0 0 0 0 0 0 0 0 0 0 0 0 0 0 0 0 0 0 0 0 0 0 0 0 0 0 0 0 0 0 0 0 0 0 0 0 0 0
0 0 0 0 0 0 0 0 0 0 0 0 0 0 0 0 0 0 0 0 0 0 0 0 0 0 0 0 0 0 0 0 0 0 0 0 0 0 0 0 0 0 0 0
0 0 0 0 0 0 0 0 0 0 0 0 0 0 0 0 0 0 0 0 0 0 0 0 0 0 0 0 0 0 0 0 0 0 0 0 0 0 0 0 0 0 0 0
0 0 0 0 0 0 0 0 0 0 0 0 0 0 0 0 0 0 0 0 0 0 0 0 0 0 0 0 0 0 0 0 0 0 0 0 0 0 0 0 0 0 0 0
0 0 0 0 0 0 0 0 0 0 0 0 0 0 0 0 0 0 0 0 0 0 0 0 0 0 0 0 0 0 0 0 0 0 0 0 0 0 0 0 0 0 0 0
0 0 0 0 0 0 0 0 0 0 0 0 0 0 0 0 0 0 0 0 0 0 0 0 0 0 0 0 0 0 0 0 0 0 0 0 0 0 0 0 0 0 0 0
0 0 0 0 0 0 0 0 0 0 0 0 0 0 0 0 0 0 0 0 0 0 0 0 0 0 0 0 0 0 0 0 0 0 0 0 0 0 0 0 0 0 0 0
0 0 0 0 0 0 0 0 0 0 0 0 0 0 0 0 0 0 0 0 0 0 0 0 0 0 0 0 0 0 0 0 0 0 0 0 0 0 0 0 0 0 0 0
0 0 0 0 0 0 0 0 0 0 0 0 0 0 0 0 0 0 0 0 0 0 0 0 0 0 0 0 0 0 0 0 0 0 0 0 0 0 0 0 0 0 0 0
0 0 0 0 0 0 0 0 0 0 0 0 0 0 0 0 0 0 0 0 0 0 0 0 0 0 0 0 0 0 0 0 0 0 0 0 0 0 0 0 0 0 0 0
0 0 0 0 0 0 0 0 0 0 0 0 0 0 0 0 0 0 0 0 0 0 0 0 0 0 0 0 0 0 0 0 0 0 0 0 0 0 0 0 0 0 0 0
0 0 0 0 0 0 0 0 0 0 0 0 0 0 0 0 0 0 0 0 0 0 0 0 0 0 0 0 0 0 0 0 0 0 0 0 0 0 0 0 0 0 0 0
0 0 0 0 0 0 0 0 0 0 0 0 0 0 0 0 0 0 0 0 0 0 0 0 0 0 0 0 0 0 0 0 0 0 0 0 0 0 0 0 0 0 0 0
0 0 0 0 0 0 0 0 0 0 0 0 0 0 0 0 0 0 0 0 0 0 0 0 0 0 0 0 0 0 0 0 0 0 0 0 0 0 0 0 0 0 0 0
0 0 0 0 0 0 0 0 0 0 0 0 0 0 0 0 0 0 0 0 0 0 0 0 0 0 0 0 0 0 0 0 0 0 0 0 0 0 0 0 0 0 0 0
0 0 0 0 0 0 0 0 0 0 0 0 0 0 0 0 0 0 0 0 0 0 0 0 0 0 0 0 0 0 0 0 0 0 0 0 0 0 0 0 0 0 0 0
0 0 0 0 0 0 0 0 0 0 0 0 0 0 0 0 0 0 0 0 0 0 0 0 0 0 0 0 0 0 0 0 0 0 0 0 0 0 0 0 0 0 0 0
0 0 0 0 0 0 0 0 0 0 0 0 0 0 0 0 0 0 0 0 0 0 0 0 0 0 0 0 0 0 0 0 0 0 0 0 0 0 0 0 0 0 0 0
0 0 0 0 0 0 0 0 0 0 0 0 0 0 0 0 0 0 0 0 0 0 0 0 0 0 0 0 0 0 0 0 0 0 0 0 0 0 0 0 0 0 0 0
0 0 0 0 0 0 0 0 0 0 0 0 0 0 0 0 0 0 0 0 0 0 0 0 0 0 0 0 0 0 0 0 0 0 0 0 0 0 0 0 0 0 0 0
0 0 0 0 0 0 0 0 0 0 0 0 0 0 0 0 0 0 0 0 0 0 0 0 0 0 0 0 0 0 0 0 0 0 0 0 0 0 0 0 0 0 0 0
0 0 0 0 0 0 0 0 0 0 0 0 0 0 0 0 0 0 0 0 0 0 0 0 0 0 0 0 0 0 0 0 0 0 0 0 0 0 0 0 0 0 0 0
0 0 0 0 0 0 0 0 0 0 0 0 0 0 0 0 0 0 0 0 0 0 0 0 0 0 0 0 0 0 0 0 0 0 0 0 0 0 0 0 0 0 0 0
Wind_Speed
3 3 2 3 4 3 4 6 6 5 5 6 6 5 4 2 2 2 2 2 2 2 3 3 3 4 4 4 5 5 5 4 4 4 4 4 4 4 4 3 3 3 3 3
3 3 2 3 5 4 4 4 5 4 5 4 3 3 3 3 3 2 0 0 1 2 3 3 3 3 4 4 4 4 4 4 4 4 5 4 4 4 4 4 4 3 4 3
3 4 3 5 6 6 4 4 6 7 7 3 3 5 6 5 4 3 1 0 0 1 2 2 2 3 3 3 4 4 3 4 4 4 4 4 4 4 4 4 4 3 3 3
1 2 3 6 2 4 4 4 4 4 4 6 5 5 4 4 5 3 2 1 0 1 2 2 2 3 3 3 4 4 4 4 4 4 4 4 4 4 4 3 3 3 4 3
1 2 7 6 3 3 4 4 4 5 4 3 3 3 1 2 3 4 3 2 1 0 0 1 2 3 3 4 4 4 5 5 5 5 4 4 4 4 3 3 3 3 4 4
2 2 5 4 2 1 3 4 4 6 6 5 5 2 5 3 2 2 1 1 1 1 1 2 2 3 3 3 4 4 5 5 5 5 4 4 4 4 3 3 3 3 4 3
3 4 8 6 2 3 3 6 3 6 7 7 7 6 4 4 2 2 2 1 1 1 1 1 2 2 3 3 4 4 4 4 5 5 4 4 4 3 3 3 3 3 3 3
4 4 9 3 5 6 7 2 2 4 5 6 4 3 3 4 3 2 2 1 1 1 0 1 1 1 2 3 4 4 4 4 5 5 4 4 4 4 3 3 3 3 3 4
8 8 4 5 6 5 3 3 3 4 3 5 5 4 4 3 3 2 2 2 1 1 0 1 1 1 1 3 4 4 4 4 4 5 4 4 3 3 3 3 2 2 2 3
5 8 6 6 5 4 4 4 4 4 4 5 5 5 4 3 3 2 2 1 1 1 0 1 2 2 2 3 3 3 4 4 4 4 4 4 3 3 3 3 3 3 2 3
6 7 4 5 6 5 3 3 3 3 4 6 6 5 5 4 4 3 2 1 1 2 1 1 2 2 2 2 3 3 3 3 4 4 4 4 3 3 3 3 3 3 2 2
9 8 6 7 5 5 5 5 5 5 4 4 6 6 5 4 4 3 3 2 2 2 2 2 1 2 2 2 2 2 3 3 3 3 3 3 3 4 5 5 7 6 5 4
7 4 5 5 4 5 6 6 6 6 7 5 5 5 6 4 4 3 3 3 3 3 3 2 2 2 2 2 2 2 2 3 3 3 3 3 3 3 4 5 7 7 7 7
5 3 3 4 5 5 5 5 5 4 5 5 5 4 5 4 3 4 5 4 3 3 2 2 2 2 2 1 1 2 2 3 3 2 3 3 3 3 3 3 4 4 5 6
7 6 6 4 3 3 3 4 4 4 4 4 4 5 6 6 6 5 4 3 3 3 3 2 2 3 2 1 1 2 2 2 2 2 2 2 3 3 3 3 3 3 3 4
4 4 4 4 6 5 5 6 7 7 7 6 6 6 6 6 5 4 4 4 4 4 4 3 3 3 2 1 2 2 2 3 3 2 2 2 2 2 2 2 3 3 3 3
5 6 6 6 7 7 7 8 8 8 7 7 7 6 5 5 4 4 4 4 4 4 4 4 4 2 2 2 2 2 2 2 3 2 2 2 2 2 2 2 2 3 3 3
10 10 9 9 8 8 8 7 7 7 7 7 6 6 6 6 7 6 5 3 3 3 3 3 3 2 2 2 2 1 1 2 2 2 2 2 2 2 2 2 3 3 3 3
8 8 7 7 8 7 7 7 7 6 6 6 7 7 7 6 6 5 4 4 4 5 4 3 3 2 2 3 2 1 2 2 2 2 2 3 2 2 2 2 2 3 3 2
6 6 6 6 6 6 6 5 5 5 5 6 6 6 5 5 5 5 5 5 5 4 3 3 3 3 3 3 3 2 2 2 2 2 2 2 2 2 2 2 2 2 2 2
5 5 6 6 5 5 6 6 6 6 6 7 7 7 7 5 5 5 4 4 4 4 4 5 3 3 3 3 3 2 2 2 2 2 2 2 2 2 2 2 2 3 2 2
5 5 6 5 5 4 4 5 5 6 6 6 6 6 5 5 5 4 5 4 4 5 3 3 3 4 4 3 2 2 3 2 2 2 2 2 2 2 2 2 2 2 2 2
4 4 5 5 6 4 4 4 5 6 6 7 7 7 6 5 5 4 4 3 3 5 3 3 4 5 5 3 2 3 3 3 3 2 2 2 2 2 2 2 2 2 2 2
4 4 4 4 4 4 4 4 4 4 4 5 5 6 5 4 3 3 3 3 5 5 3 4 5 6 5 2 2 3 3 3 3 2 2 2 2 2 2 2 2 2 2 2
4 4 4 5 5 4 4 4 3 3 3 3 3 4 4 4 4 3 3 3 5 4 3 4 5 5 3 2 3 3 3 3 3 3 3 2 2 2 2 2 2 2 2 2
4 4 4 5 4 4 4 4 3 3 3 3 3 2 2 2 3 3 3 3 4 4 3 2 3 4 3 3 3 3 3 3 3 3 3 2 3 3 2 2 3 2 2 2
4 3 3 2 3 4 4 4 4 5 5 4 3 3 3 3 3 3 3 3 3 3 3 2 2 3 3 3 3 3 3 2 2 2 2 2 2 3 3 3 2 2 2 2
Wind_Direction
264 269 236 240 247 218 185 188 191 213 211 223 209 193 184 161 118 93 65 41 35 21 2 357 2 359 357 359 358 356 1 360 349 344 345 345 343 336 333 327 320 312 300 290
318 317 286 275 259 241 226 208 207 209 247 231 191 159 154 155 147 142 137 40 12 10 3 355 353 351 355 356 352 352 358 349 340 347 348 345 342 338 338 333 322 315 304 294
291 315 347 282 242 210 214 204 181 206 222 177 164 174 180 178 172 185 195 160 350 338 338 333 333 344 345 340 345 357 358 350 347 347 345 339 339 341 336 326 322 314 307 302
292 5 254 254 271 196 200 235 212 201 186 177 187 181 176 172 173 187 194 200 255 326 339 339 343 348 348 351 360 5 0 353 346 342 339 339 344 340 332 325 320 313 314 305
129 276 281 288 260 183 182 258 222 192 182 169 132 88 290 214 180 187 193 195 210 243 348 357 356 350 1 2 3 4 354 346 338 334 336 339 337 330 324 326 327 322 320 321
146 225 251 257 235 163 110 274 234 178 174 167 140 170 239 214 174 169 162 138 120 59 40 22 350 358 17 6 2 349 337 335 334 332 334 330 324 322 325 329 325 327 329 323
187 241 265 254 196 102 157 249 209 174 173 172 186 205 194 161 157 153 143 143 121 98 64 341 341 11 18 2 344 330 330 336 339 340 336 330 329 329 331 333 334 334 330 322
173 214 258 212 143 184 221 236 163 169 174 176 183 160 149 154 155 147 139 134 131 124 347 340 355 23 6 339 326 332 337 342 341 340 338 340 340 338 339 336 334 330 329 327
198 218 248 197 204 220 189 185 191 176 178 160 159 169 168 168 164 166 165 166 157 155 249 340 347 16 340 317 327 339 343 340 337 338 342 343 342 339 339 338 331 326 326 324
254 260 252 237 237 232 202 194 193 177 166 161 168 175 174 170 173 178 178 182 167 143 168 299 321 331 307 315 334 345 342 335 336 339 342 344 342 337 338 335 330 323 318 315
255 269 281 257 226 216 203 177 164 166 170 171 165 176 181 182 189 189 187 187 174 181 205 263 305 319 327 336 348 343 334 330 333 335 334 336 337 333 326 311 312 312 296 290
227 224 205 239 227 192 184 193 184 173 174 173 172 179 181 189 193 188 189 187 190 200 215 247 262 291 317 332 336 332 329 328 327 329 329 329 328 329 340 339 337 337 332 324
229 229 215 244 219 191 190 192 187 183 181 182 182 179 179 187 191 186 188 195 204 209 217 228 241 264 291 312 322 313 309 313 317 321 321 321 323 325 327 336 344 348 348 346
226 204 239 231 221 208 192 186 179 179 183 179 178 175 175 178 182 189 199 207 208 206 212 222 235 255 273 288 302 299 301 302 308 306 308 311 311 311 312 320 328 331 336 341
228 213 217 222 201 188 173 162 169 186 187 186 179 178 180 185 195 204 205 194 186 197 215 219 234 262 275 273 281 286 292 296 299 300 302 305 308 310 311 313 314 319 331 337
234 220 203 196 196 193 185 186 194 202 198 195 194 196 195 194 196 197 192 183 187 209 218 220 236 253 253 251 274 277 280 297 311 301 302 310 315 316 314 311 311 315 323 326
197 214 207 207 206 206 204 204 202 203 198 197 199 193 182 177 183 193 202 203 204 212 214 217 235 247 238 235 243 258 276 290 302 305 295 297 303 305 306 311 313 313 311 319
214 214 207 202 202 206 211 208 202 199 201 200 186 177 179 187 199 205 206 201 204 225 230 226 224 224 231 235 234 244 260 271 277 280 288 293 302 300 299 300 304 306 310 318
217 214 212 208 204 200 202 203 201 197 191 180 179 187 194 200 201 197 188 190 205 227 236 226 218 204 226 241 235 227 244 260 272 285 286 295 303 302 298 298 301 304 307 311
218 212 208 206 198 192 196 196 187 185 185 178 179 184 193 199 192 187 191 209 219 221 214 206 206 215 228 232 224 220 230 241 256 271 277 282 288 293 295 299 304 307 311 310
213 206 199 197 197 194 189 183 180 186 186 179 182 192 198 197 190 188 196 225 235 215 203 203 201 216 225 228 219 221 226 232 243 251 259 269 277 284 291 297 300 300 302 307
206 200 198 189 182 191 192 184 182 183 183 186 188 185 184 191 193 202 215 221 221 204 194 203 210 221 228 224 214 219 227 232 238 242 246 254 260 269 275 281 286 293 297 298
205 200 194 189 185 183 181 185 185 184 188 190 189 190 192 195 190 195 224 220 205 204 195 209 225 228 222 208 214 220 226 229 234 238 241 246 248 253 261 268 273 282 287 289
199 194 188 175 158 165 189 200 189 187 188 192 196 193 187 187 202 212 209 198 199 204 205 222 226 224 211 201 212 221 227 229 230 232 239 245 247 248 253 259 264 270 274 278
191 185 176 171 181 195 194 178 165 170 177 188 194 194 192 189 194 195 188 196 204 204 210 223 225 220 209 211 215 224 228 228 226 224 227 235 242 247 251 252 254 259 264 267
195 196 196 198 197 188 177 173 181 186 184 191 201 197 189 182 176 173 182 195 202 204 205 211 217 217 213 216 220 223 226 237 245 236 231 235 242 245 249 252 256 256 260 264
186 187 183 186 189 183 181 183 188 193 192 191 199 198 187 182 180 184 187 191 198 204 208 210 212 215 217 221 223 224 224 225 228 230 229 233 237 242 247 251 254 257 258 259